Visalia, CA

8:02 AM PDT on August 18, 2017 (GMT -0700)
Visalia Municipal

Weather History for KVIS - July, 2013

Change the Weather History Date:

Monday, July 1, 2013

  Actual Average Record
Temperature  
Mean Temperature 86 °F -  
Max Temperature 100 °F 92 °F 112 °F (1950)
Min Temperature 71 °F 62 °F 51 °F (1997)
Cooling Degree Days 20    
Growing Degree Days 36 (Base 50)    
Moisture  
Dew Point 65 °F    
Average Humidity 50    
Maximum Humidity 73    
Minimum Humidity 31    
Precipitation  
Precipitation 0.00 in - - ()
Sea Level Pressure  
Sea Level Pressure 29.77 in    
Wind  
Wind Speed 4 mph (West)    
Max Wind Speed 14 mph    
Max Gust Speed -    
Visibility 10 miles    
Events      
Averages and records for this station are not official NWS values.
T = Trace of Precipitation, MM = Missing Value Source: NWS Daily Summary

Daily Weather History Graph

Daily Weather History Graph

Search for Another Location

Airport or City:

Trip Planner

Search our weather history database for the weather conditions in past years. The results will help you decide how hot, cold, wet, or windy it might be!

Date:

Astronomy

Jul. 01, 2013 Rise Set
Actual Time 5:43 AM PDT 8:19 PM PDT
Civil Twilight 5:13 AM PDT 8:49 PM PDT
Nautical Twilight 4:35 AM PDT 9:27 PM PDT
Astronomical Twilight 3:53 AM PDT 10:08 PM PDT
Moon 1:09 AM PDT (7/1) 2:44 PM PDT (7/1)
Length of Visible Light 15h 36m
Length of Day
14h 35m
Waning Crescent, 34% of the Moon is Illuminated
Jul 1
Waning Crescent
Jul 8
New
Jul 15
First Quarter
Jul 22
Full
Jul 29
Last Quarter

Hourly Weather History & Observations

Time (PDT) Temp. Heat Index Dew Point Humidity Pressure Visibility Wind Dir Wind Speed Gust Speed Precip Events Conditions
12:15 AM 82.4 °F 83.9 °F 64.4 °F 54% 29.74 in 10.0 mi West 3.5 mph - N/A   Unknown
12:35 AM 80.6 °F 82.3 °F 64.4 °F 58% 29.74 in 10.0 mi Calm Calm - N/A   Unknown
12:55 AM 82.4 °F 83.4 °F 62.6 °F 51% 29.74 in 10.0 mi NW 4.6 mph - N/A   Unknown
1:15 AM 82.4 °F 83.4 °F 62.6 °F 51% 29.74 in 10.0 mi NNW 4.6 mph - N/A   Unknown
1:35 AM 80.6 °F 81.8 °F 62.6 °F 54% 29.74 in 10.0 mi WNW 3.5 mph - N/A   Unknown
1:55 AM 80.6 °F 81.8 °F 62.6 °F 54% 29.75 in 10.0 mi NW 4.6 mph - N/A   Unknown
2:15 AM 80.6 °F 81.8 °F 62.6 °F 54% 29.74 in 10.0 mi NNW 5.8 mph - N/A   Unknown
2:35 AM 80.6 °F 81.8 °F 62.6 °F 54% 29.74 in 10.0 mi NW 3.5 mph - N/A   Unknown
2:55 AM 78.8 °F - 60.8 °F 54% 29.74 in 10.0 mi NW 3.5 mph - N/A   Unknown
3:15 AM 78.8 °F - 62.6 °F 57% 29.74 in 10.0 mi Calm Calm - N/A   Unknown
3:35 AM 77.0 °F - 60.8 °F 57% 29.74 in 10.0 mi Calm Calm - N/A   Unknown
3:55 AM 75.2 °F - 60.8 °F 61% 29.74 in 10.0 mi Calm Calm - N/A   Unknown
4:15 AM 77.0 °F - 62.6 °F 61% 29.75 in 10.0 mi NW 4.6 mph - N/A   Unknown
4:35 AM 75.2 °F - 62.6 °F 65% 29.75 in 10.0 mi Calm Calm - N/A   Unknown
4:55 AM 75.2 °F - 62.6 °F 65% 29.76 in 10.0 mi WNW 3.5 mph - N/A   Unknown
5:15 AM 73.4 °F - 62.6 °F 69% 29.76 in 10.0 mi Calm Calm - N/A   Unknown
5:35 AM 73.4 °F - 60.8 °F 65% 29.76 in 10.0 mi Calm Calm - N/A   Unknown
5:55 AM 71.6 °F - 60.8 °F 69% 29.78 in 10.0 mi South 4.6 mph - N/A   Unknown
6:15 AM 71.6 °F - 62.6 °F 73% 29.78 in 10.0 mi SW 3.5 mph - N/A   Unknown
6:35 AM 71.6 °F - 62.6 °F 73% 29.78 in 10.0 mi SSW 3.5 mph - N/A   Unknown
6:55 AM 73.4 °F - 62.6 °F 69% 29.79 in 10.0 mi Calm Calm - N/A   Unknown
7:15 AM 73.4 °F - 62.6 °F 69% 29.80 in 10.0 mi Calm Calm - N/A   Unknown
7:35 AM 75.2 °F - 62.6 °F 65% 29.80 in 10.0 mi SSW 3.5 mph - N/A   Unknown
7:55 AM 75.2 °F - 64.4 °F 69% 29.80 in 10.0 mi Calm Calm - N/A   Unknown
8:15 AM 78.8 °F - 62.6 °F 57% 29.81 in 10.0 mi Calm Calm - N/A   Clear
8:35 AM 80.6 °F 81.8 °F 62.6 °F 54% 29.81 in 10.0 mi Calm Calm - N/A   Clear
8:55 AM 80.6 °F 82.3 °F 64.4 °F 58% 29.81 in 10.0 mi Calm Calm - N/A   Clear
9:15 AM 82.4 °F 83.9 °F 64.4 °F 54% 29.81 in 10.0 mi South 4.6 mph - N/A   Clear
9:35 AM 84.2 °F 85.0 °F 62.6 °F 48% 29.81 in 10.0 mi SSE 4.6 mph - N/A   Clear
9:55 AM 84.2 °F 85.0 °F 62.6 °F 48% 29.81 in 10.0 mi South 6.9 mph - N/A   Clear
10:15 AM 84.2 °F 85.6 °F 64.4 °F 51% 29.81 in 10.0 mi South 5.8 mph - N/A   Clear
10:35 AM 84.2 °F 85.6 °F 64.4 °F 51% 29.82 in 10.0 mi South 5.8 mph - N/A   Clear
10:55 AM 84.2 °F 85.6 °F 64.4 °F 51% 29.82 in 10.0 mi South 8.1 mph - N/A   Clear
11:15 AM 86.0 °F 86.6 °F 62.6 °F 45% 29.83 in 10.0 mi South 6.9 mph - N/A   Clear
11:35 AM 87.8 °F 88.5 °F 62.6 °F 43% 29.83 in 10.0 mi SSE 6.9 mph - N/A   Clear
11:55 AM 87.8 °F 89.4 °F 64.4 °F 46% 29.83 in 10.0 mi South 4.6 mph - N/A   Clear
12:15 PM 87.8 °F 89.4 °F 64.4 °F 46% 29.82 in 10.0 mi South 3.5 mph - N/A   Clear
12:35 PM 89.6 °F 91.1 °F 64.4 °F 43% 29.81 in 10.0 mi South 4.6 mph - N/A   Clear
12:55 PM 89.6 °F 91.1 °F 64.4 °F 43% 29.81 in 10.0 mi SSW 3.5 mph - N/A   Clear
1:15 PM 89.6 °F 92.2 °F 66.2 °F 46% 29.80 in 10.0 mi NE 5.8 mph - N/A   Clear
1:35 PM 93.2 °F 94.9 °F 64.4 °F 38% 29.80 in 10.0 mi East 6.9 mph - N/A   Clear
1:55 PM 93.2 °F 94.9 °F 64.4 °F 38% 29.79 in 10.0 mi Calm Calm - N/A   Clear
2:15 PM 96.8 °F 99.0 °F 64.4 °F 34% 29.79 in 10.0 mi Calm Calm - N/A   Clear
2:35 PM 100.4 °F 103.6 °F 64.4 °F 31% 29.78 in 10.0 mi NW 8.1 mph - N/A   Clear
2:55 PM 100.4 °F 103.6 °F 64.4 °F 31% 29.77 in 10.0 mi WNW 11.5 mph - N/A   Clear
3:15 PM 100.4 °F 104.9 °F 66.2 °F 33% 29.77 in 10.0 mi WNW 6.9 mph - N/A   Clear
3:35 PM 98.6 °F 101.0 °F 64.4 °F 32% 29.77 in 10.0 mi WNW 4.6 mph - N/A   Clear
3:55 PM 96.8 °F 101.8 °F 68.0 °F 39% 29.76 in 10.0 mi West 8.1 mph - N/A   Clear
4:15 PM 96.8 °F 101.8 °F 68.0 °F 39% 29.74 in 10.0 mi NNW 13.8 mph - N/A   Clear
4:35 PM 98.6 °F 105.5 °F 69.8 °F 39% 29.74 in 10.0 mi NNW 11.5 mph - N/A   Clear
4:55 PM 98.6 °F 105.5 °F 69.8 °F 39% 29.74 in 10.0 mi NW 5.8 mph - N/A   Clear
5:15 PM 98.6 °F 105.5 °F 69.8 °F 39% 29.73 in 10.0 mi West 5.8 mph - N/A   Clear
5:35 PM 98.6 °F 107.7 °F 71.6 °F 42% 29.72 in 10.0 mi WNW 6.9 mph - N/A   Clear
5:55 PM 98.6 °F 107.7 °F 71.6 °F 42% 29.72 in 10.0 mi WNW 8.1 mph - N/A   Clear
6:15 PM 98.6 °F 107.7 °F 71.6 °F 42% 29.73 in 10.0 mi NW 4.6 mph - N/A   Clear
6:35 PM 98.6 °F 107.7 °F 71.6 °F 42% 29.73 in 10.0 mi West 8.1 mph - N/A   Clear
6:55 PM 96.8 °F 107.3 °F 73.4 °F 47% 29.74 in 10.0 mi West 9.2 mph - N/A   Clear
7:15 PM 96.8 °F 105.1 °F 71.6 °F 44% 29.74 in 10.0 mi West 6.9 mph - N/A   Clear
7:35 PM 95.0 °F 101.3 °F 69.8 °F 44% 29.74 in 10.0 mi West 8.1 mph - N/A   Clear
7:55 PM 93.2 °F 97.7 °F 68.0 °F 44% 29.76 in 10.0 mi West 5.8 mph - N/A   Clear
8:15 PM 91.4 °F 94.0 °F 66.2 °F 43% 29.76 in 10.0 mi Calm Calm - N/A   Clear
8:35 PM 87.8 °F 91.4 °F 68.0 °F 52% 29.77 in 10.0 mi South 3.5 mph - N/A   Clear
8:55 PM 87.8 °F 90.4 °F 66.2 °F 49% 29.78 in 10.0 mi Calm Calm - N/A   Clear
9:15 PM 87.8 °F 90.4 °F 66.2 °F 49% 29.78 in 10.0 mi WSW 3.5 mph - N/A   Clear
9:35 PM 86.0 °F 88.2 °F 66.2 °F 51% 29.79 in 10.0 mi Calm Calm - N/A   Clear
9:55 PM 87.8 °F 90.4 °F 66.2 °F 49% 29.80 in 10.0 mi Calm Calm - N/A   Clear
10:15 PM 86.0 °F 88.2 °F 66.2 °F 51% 29.80 in 10.0 mi WNW 5.8 mph - N/A   Clear
10:35 PM 84.2 °F 86.6 °F 66.2 °F 55% 29.80 in 10.0 mi WNW 6.9 mph - N/A   Clear
10:55 PM 87.8 °F 89.4 °F 64.4 °F 46% 29.81 in 10.0 mi WNW 4.6 mph - N/A   Clear
11:15 PM 84.2 °F 85.6 °F 64.4 °F 51% 29.80 in 10.0 mi WNW 5.8 mph - N/A   Clear
11:35 PM 86.0 °F 86.6 °F 62.6 °F 45% 29.80 in 10.0 mi NW 6.9 mph - N/A   Clear
11:55 PM 84.2 °F 85.0 °F 62.6 °F 48% 29.80 in 10.0 mi NNW 6.9 mph - N/A   Clear